Voltar ao catálogo

FREGAT DEB

LostHEO
NORAD 46412·DEBRIS·🇷🇺 Russia

Lançado Jul 18, 2011 de Baikonur Cosmodrome

Loading…

Próximas Passagens (próximas 24 horas)

TLE

ObsoletoSource: Space-Track

Época: Sep 8, 2020, 07:20 UTC

1 46412U 11037LT  20252.30614214  .00354310  00000-0  11622+0 0  9998
2 46412  50.8758 213.8848 2534072 163.5002 206.6613  9.93486686   706

Acompanhe FREGAT DEB em tempo real com AllMySat

Download on the App Store